Camden, MI (49232)

10:20 AM EST on December 21, 2014 (GMT -0500)
KMIWALDR2 | Change Station
CLOSE
Current Station
Personal Weather Station
Location: Waldron, MI
Elevation: 900 ft
Nearby Weather Stations

Elev 900 ft 41.70 °N, 84.46 °W | Updated 5 minutes ago

Overcast
Overcast
30.0 °F
Feels Like 30 °F
N
3.0
Wind Variable Wind from SSE
Gusts 6.0 mph

Today
High -- | Low -- °F
--% Chance of Precip.
Yesterday
High -- | Low -- °F
Precip. -- in
8:02 AM 5:11 PM
Waning Crescent, 0% visible
Pressure 30.27 in
Visibility 2.5 miles
Clouds Overcast 6000 ft
Windchill 30 °F
Dew Point 28 °F
Humidity 93%
Rainfall 0.00 in
Snow Depth Not available.
UV 0 out of 12
Pollen .10 out of 12
Air Quality Not available.
Flu Activity Not available.
METAR KJYM 211515Z AUTO 17004KT 2 1/2SM BR OVC060 M01/M02 A3027 RMK AO2 T10091017

More Conditions Fewer Conditions

Pressure 30.27 in
Visibility 2.5 miles
Clouds Overcast 6000 ft
Windchill 30 °F
Dew Point 28 °F
Humidity 93%
Rainfall 0.00 in
Snow Depth Not available.
UV 0 out of 12
Pollen .10 out of 12
Air Quality Not available.
Flu Activity Not available.
METAR KJYM 211515Z AUTO 17004KT 2 1/2SM BR OVC060 M01/M02 A3027 RMK AO2 T10091017

More Conditions Fewer Conditions

10-Day Weather Forecast

Almanac

Astronomy

Dec. 21, 2014 Rise Set
Actual Time
Civil Twilight
Nautical Twilight
Astronomical Twilight
Moon
Length of Visible Light
Length of Day
Tomorrow will be .
, % of the Moon is Illuminated

Today's Extremes

State Highs State Lows

Community

WunderPhotos

Upload Photos

1,779,412 photos uploaded!

WunderBlogs® & News

Nearby

Air Quality

  Air Quality AQ Index Pollutant
Not available.

Snow Depth

Station Depth Elevation

Earthquake Activity

City Distance Mag. Time & Date
Minimum magnitude displayed is 2.5.

Coastal Water Temperatures

Place Temperature

Nearby Weather Stations